This is the latest recevied weather packets stored in our database for station/object KB3FKJ. If no packets are shown the sender has not sent any weather packets the latest 10 day(s).
| Time | Temp. | Humidity | Pressure | Rain* | Wind** | Luminosity | Snow |
|---|---|---|---|---|---|---|---|
| 1778093104 | 16.11° C | 89% | 1006.8 hPa | 0 mm | - | 230 W/m² | - |
| 1778092801 | 15.56° C | 89% | 1006.9 hPa | 0 mm | - | 240 W/m² | - |
| 1778092496 | 15° C | 90% | 1006.9 hPa | 0 mm | - | 161 W/m² | - |
| 1778092194 | 15° C | 92% | 1006.9 hPa | 0 mm | - | 135 W/m² | - |
| 1778091890 | 15° C | 93% | 1006.9 hPa | 0 mm | - | 145 W/m² | - |
| 1778091587 | 14.44° C | 92% | 1006.9 hPa | 0 mm | - | 79 W/m² | - |
| 1778091286 | 14.44° C | 93% | 1006.8 hPa | 0 mm | - | 91 W/m² | - |
| 1778090982 | 14.44° C | 94% | 1006.9 hPa | 0 mm | - | 86 W/m² | - |
| 1778090678 | 14.44° C | 95% | 1007 hPa | 0 mm | - | 69 W/m² | - |
| 1778090375 | 14.44° C | 95% | 1007 hPa | 0 mm | - | 117 W/m² | - |
| 1778090072 | 14.44° C | 96% | 1006.7 hPa | 1.27 mm | - | 111 W/m² | - |
| 1778089768 | 14.44° C | 96% | 1006.8 hPa | 1.27 mm | - | 94 W/m² | - |
| 1778089466 | 14.44° C | 96% | 1006.9 hPa | 0 mm | - | 77 W/m² | - |
| 1778089157 | 14.44° C | 96% | 1006.7 hPa | 0 mm | - | 117 W/m² | - |
| 1778088854 | 14.44° C | 95% | 1006.4 hPa | 0 mm | - | 83 W/m² | - |
| 1778088552 | 14.44° C | 95% | 1006.8 hPa | 0 mm | - | 67 W/m² | - |
| 1778088248 | 15° C | 95% | 1006.5 hPa | 0 mm | - | 62 W/m² | - |
| 1778087945 | 15° C | 94% | 1006.5 hPa | 0 mm | - | 70 W/m² | - |
| 1778087642 | 14.44° C | 94% | 1006.5 hPa | 0 mm | - | 53 W/m² | - |
| 1778087340 | 15° C | 93% | 1006.4 hPa | 0 mm | - | 49 W/m² | - |
| 1778087036 | 15° C | 92% | 1006.3 hPa | 0 mm | - | 40 W/m² | - |
| 1778086729 | 15.56° C | 91% | 1006.5 hPa | 0 mm | - | 50 W/m² | - |
| 1778086427 | 15.56° C | 91% | 1006.3 hPa | 0 mm | - | 55 W/m² | - |
| 1778086123 | 15.56° C | 91% | 1006.2 hPa | 0 mm | - | 72 W/m² | - |
| 1778085819 | 16.11° C | 92% | 1006.3 hPa | 0 mm | - | 142 W/m² | - |
* Rain latest hour (hover to see other rain measurements)
** Current wind speed in m/s (hover to see current wind gust speed)